Philadelphia Wings Airport, PA

9:40 PM EDT on October 21, 2019 (GMT -0400)
Philadelphia Wings Airport

Weather History for KLOM - September, 2019

Change the Weather History Date:

Wednesday, September 18, 2019

  Actual Average (KPNE) Record (KPNE)
Temperature  
Mean Temperature 60 °F -  
Max Temperature 72 °F 74 °F 87 °F (2016)
Min Temperature 48 °F 55 °F 46 °F (2013)
Degree Days  
Heating Degree Days 5    
Growing Degree Days 10 (Base 50)    
Moisture  
Dew Point 50 °F    
Average Humidity 76    
Maximum Humidity 99    
Minimum Humidity 42    
Precipitation  
Precipitation 0.00 in - - ()
Sea Level Pressure  
Sea Level Pressure 30.22 in    
Wind  
Wind Speed 2 mph (ENE)    
Max Wind Speed 10 mph    
Max Gust Speed 17 mph    
Visibility 9 miles    
Events      
Averages and records for this station are not official NWS values.
T = Trace of Precipitation, MM = Missing Value Source: NWS Daily Summary

Daily Weather History Graph

Daily Weather History Graph

Search for Another Location

Airport or City:

Astronomy

Sep. 18, 2019 Rise Set
Actual Time 6:44 AM EDT 7:05 PM EDT
Civil Twilight 6:17 AM EDT 7:32 PM EDT
Nautical Twilight 5:45 AM EDT 8:04 PM EDT
Astronomical Twilight 5:12 AM EDT 8:36 PM EDT
Moon 9:37 PM EDT (9/18) 10:45 AM EDT (9/18)
Length of Visible Light 13h 14m
Length of Day
12h 20m
Waning Gibbous, 82% of the Moon is Illuminated
Sep 18
Waning Gibbous
Sep 21
Last Quarter
Sep 28
New
Oct 5
First Quarter
Oct 13
Full

Hourly Weather History & Observations

Time (EDT) Temp. Dew Point Humidity Pressure Visibility Wind Dir Wind Speed Gust Speed Precip Events Conditions
12:15 AM 51.3 °F 50.7 °F 98% 30.16 in 10.0 mi Calm Calm - N/A   Clear
12:35 AM 50.4 °F 49.3 °F 96% 30.15 in 10.0 mi Calm Calm - N/A   Clear
12:55 AM 50.7 °F 50.2 °F 98% 30.16 in 10.0 mi Calm Calm - N/A   Clear
1:15 AM 49.8 °F 49.3 °F 98% 30.16 in 10.0 mi Calm Calm - N/A   Clear
1:35 AM 49.8 °F 48.9 °F 97% 30.17 in 10.0 mi Calm Calm - N/A   Clear
1:55 AM 50.5 °F 50.0 °F 98% 30.17 in 10.0 mi Calm Calm - N/A   Clear
2:15 AM 49.5 °F 48.9 °F 98% 30.17 in 10.0 mi Calm Calm - N/A   Clear
2:35 AM 49.3 °F 48.7 °F 98% 30.17 in 3.0 mi Calm Calm - N/A   Clear
2:55 AM 49.5 °F 48.9 °F 98% 30.17 in 10.0 mi Calm Calm - N/A   Clear
3:15 AM 48.7 °F 48.0 °F 97% 30.16 in 5.0 mi Calm Calm - N/A   Clear
3:35 AM 48.6 °F 48.0 °F 98% 30.17 in 7.0 mi Calm Calm - N/A   Clear
3:55 AM 48.7 °F 48.2 °F 98% 30.17 in 10.0 mi Calm Calm - N/A   Clear
4:15 AM 48.2 °F 47.7 °F 98% 30.17 in 1.5 mi Calm Calm - N/A   Mist
4:35 AM 48.0 °F 47.3 °F 97% 30.17 in 2.0 mi ENE 3.5 mph - N/A   Clear
4:55 AM 48.4 °F 48.0 °F 99% 30.18 in 2.0 mi Calm Calm - N/A   Clear
5:15 AM 48.4 °F 47.5 °F 97% 30.18 in 5.0 mi East 3.5 mph - N/A   Clear
5:35 AM 48.2 °F 47.7 °F 98% 30.18 in 2.0 mi Calm Calm - N/A   Scattered Clouds
5:55 AM 48.2 °F 47.7 °F 98% 30.18 in 5.0 mi Calm Calm - N/A   Scattered Clouds
6:15 AM 48.0 °F 47.5 °F 98% 30.19 in 10.0 mi Calm Calm - N/A   Clear
6:35 AM 48.9 °F 48.2 °F 97% 30.20 in 10.0 mi Calm Calm - N/A   Clear
6:55 AM 48.2 °F 47.5 °F 97% 30.21 in 10.0 mi Calm Calm - N/A   Clear
7:15 AM 49.3 °F 48.6 °F 97% 30.21 in 7.0 mi Calm Calm - N/A   Clear
7:35 AM 52.3 °F 51.4 °F 97% 30.23 in 5.0 mi Calm Calm - N/A   Clear
7:55 AM 53.8 °F 49.6 °F 86% 30.23 in 7.0 mi Calm Calm - N/A   Scattered Clouds
8:15 AM 55.8 °F 50.4 °F 82% 30.23 in 10.0 mi NNE 4.6 mph - N/A   Scattered Clouds
8:35 AM 58.1 °F 51.1 °F 77% 30.24 in 10.0 mi NE 6.9 mph - N/A   Scattered Clouds
8:55 AM 59.7 °F 53.1 °F 79% 30.24 in 10.0 mi ENE 5.8 mph - N/A   Mostly Cloudy
9:15 AM 62.2 °F 54.0 °F 74% 30.24 in 10.0 mi East 5.8 mph - N/A   Mostly Cloudy
9:35 AM 63.3 °F 53.8 °F 71% 30.24 in 10.0 mi ENE 4.6 mph - N/A   Scattered Clouds
9:55 AM 64.8 °F 54.7 °F 70% 30.24 in 10.0 mi East 9.2 mph - N/A   Clear
10:15 AM 64.9 °F 54.3 °F 68% 30.24 in 10.0 mi East 5.8 mph - N/A   Scattered Clouds
10:35 AM 66.2 °F 54.5 °F 66% 30.24 in 10.0 mi ENE 5.8 mph - N/A   Mostly Cloudy
10:55 AM 67.5 °F 55.2 °F 65% 30.24 in 10.0 mi ENE 8.1 mph - N/A   Overcast
11:15 AM 68.5 °F 55.8 °F 64% 30.25 in 10.0 mi ENE 5.8 mph - N/A   Mostly Cloudy
11:35 AM 68.5 °F 54.9 °F 62% 30.25 in 10.0 mi ENE 10.4 mph - N/A   Mostly Cloudy
11:55 AM 70.2 °F 54.1 °F 57% 30.24 in 10.0 mi NNE 4.6 mph - N/A   Mostly Cloudy
12:15 PM 69.6 °F 51.6 °F 53% 30.23 in 10.0 mi East 9.2 mph - N/A   Overcast
12:35 PM 72.3 °F 52.7 °F 50% 30.23 in 10.0 mi ENE 9.2 mph - N/A   Mostly Cloudy
12:55 PM 68.0 °F 50.7 °F 54% 30.23 in 10.0 mi ENE 8.1 mph - N/A   Scattered Clouds
1:15 PM 71.8 °F 51.4 °F 49% 30.23 in 10.0 mi ENE 4.6 mph - N/A   Scattered Clouds
1:35 PM 69.1 °F 50.0 °F 51% 30.22 in 10.0 mi North 4.6 mph - N/A   Mostly Cloudy
1:55 PM 71.4 °F 49.6 °F 46% 30.22 in 10.0 mi ENE 6.9 mph - N/A   Mostly Cloudy
2:15 PM 69.1 °F 49.5 °F 50% 30.22 in 10.0 mi NNE 6.9 mph - N/A   Mostly Cloudy
2:35 PM 70.9 °F 49.5 °F 47% 30.23 in 10.0 mi North 5.8 mph - N/A   Mostly Cloudy
2:55 PM 72.3 °F 50.0 °F 45% 30.23 in 10.0 mi East 6.9 mph - N/A   Scattered Clouds
3:15 PM 71.2 °F 49.3 °F 46% 30.22 in 10.0 mi ENE 8.1 mph - N/A   Scattered Clouds
3:35 PM 71.6 °F 48.0 °F 43% 30.22 in 10.0 mi NNE 9.2 mph 17.3 mph N/A   Clear
3:55 PM 71.2 °F 46.9 °F 42% 30.22 in 10.0 mi NE 5.8 mph - N/A   Clear
4:15 PM 71.1 °F 47.1 °F 42% 30.22 in 10.0 mi NNE 5.8 mph - N/A   Clear
4:35 PM 72.0 °F 48.6 °F 43% 30.22 in 10.0 mi East 8.1 mph - N/A   Clear
4:55 PM 71.1 °F 47.7 °F 43% 30.22 in 10.0 mi NNE 3.5 mph - N/A   Clear
5:15 PM 70.7 °F 47.7 °F 44% 30.21 in 10.0 mi East 5.8 mph - N/A   Clear
5:35 PM 70.3 °F 48.4 °F 46% 30.22 in 10.0 mi ENE 6.9 mph - N/A   Clear
5:55 PM 69.1 °F 48.0 °F 47% 30.22 in 10.0 mi NE 5.8 mph - N/A   Clear
6:15 PM 67.8 °F 48.2 °F 49% 30.23 in 10.0 mi NE 4.6 mph - N/A   Scattered Clouds
6:35 PM 66.6 °F 48.7 °F 53% 30.23 in 10.0 mi ENE 6.9 mph - N/A   Scattered Clouds
6:55 PM 64.4 °F 49.1 °F 58% 30.23 in 10.0 mi NE 3.5 mph - N/A   Clear
7:15 PM 58.3 °F 54.3 °F 87% 30.23 in 10.0 mi Calm Calm - N/A   Clear
7:35 PM 56.5 °F 53.1 °F 88% 30.24 in 10.0 mi Calm Calm - N/A   Clear
7:55 PM 56.8 °F 52.2 °F 84% 30.25 in 10.0 mi ENE 4.6 mph - N/A   Clear
8:15 PM 57.6 °F 52.0 °F 82% 30.26 in 10.0 mi Calm Calm - N/A   Clear
8:35 PM 54.7 °F 52.0 °F 91% 30.26 in 10.0 mi East 3.5 mph - N/A   Clear
8:55 PM 55.8 °F 51.8 °F 87% 30.27 in 10.0 mi East 3.5 mph - N/A   Clear
9:15 PM 55.0 °F 50.9 °F 86% 30.28 in 10.0 mi East 4.6 mph - N/A   Clear
9:35 PM 54.1 °F 50.5 °F 88% 30.28 in 10.0 mi East 4.6 mph - N/A   Clear
9:55 PM 56.1 °F 50.4 °F 81% 30.29 in 10.0 mi East 5.8 mph - N/A   Clear
10:15 PM 54.0 °F 51.1 °F 90% 30.30 in 10.0 mi East 3.5 mph - N/A   Clear
10:35 PM 51.8 °F 50.2 °F 94% 30.31 in 10.0 mi Calm Calm - N/A   Clear
10:55 PM 52.0 °F 50.5 °F 95% 30.31 in 10.0 mi Calm Calm - N/A   Clear
11:15 PM 50.5 °F 49.3 °F 95% 30.30 in 10.0 mi Calm Calm - N/A   Clear
11:35 PM 50.4 °F 49.5 °F 97% 30.31 in 10.0 mi Calm Calm - N/A   Clear
11:55 PM 49.6 °F 48.2 °F 95% 30.31 in 10.0 mi Calm Calm - N/A   Clear